Location: Cheching
(60.0667°N, 164.2167°W)
Time: 15:24:08
(UTC+00:00)

O/OREOS (USA 219) - Pass Details

Date: 21 January 2021
Orbit: 621 x 646 km, 72.0° (Epoch: 22 May)

Event Time Altitude Azimuth Distance (km) Brightness Sun altitude
Rises 17:34:57 0° 179° (S) 2,952 ? -13.8°
Reaches altitude 10° 17:37:27 10° 168° (SSE) 2,046 ? -13.5°
Maximum altitude 17:41:23 28° 109° (ESE) 1,205 ? -13.0°
Drops below altitude 10° 17:45:19 10° 51° (NE) 2,054 ? -12.5°
Sets 17:47:50 0° 40° (NE) 2,966 ? -12.2°
